ESUT Weather Reports


time (UTC)temp
C
wind
direction
speed
KPH
gust
KPH
rain 1hr
cm
rain 24hr
cm
rain mn
cm
humidity
%
barometer
mb
20260508100307 5 160 12.9 0.0 0.00 0.00 0.00 45 1021.0
20260508093307 5 150 12.9 0.0 0.00 0.00 0.00 52 1021.0
20260508090307 5 180 12.9 0.0 0.00 0.00 0.00 52 1021.0
20260508083307 3 140 11.3 0.0 0.00 0.00 0.00 55 1022.0
20260508073307 2 70 9.7 0.0 0.00 0.00 0.00 59 1022.0
20260508070306 1 0 3.2 0.0 0.00 0.00 0.00 64 1022.0
20260508063306 1 20 4.8 0.0 0.00 0.00 0.00 64 1021.0
20260508060306 0 0 3.2 0.0 0.00 0.00 0.00 80 1021.0
20260508053307 0 0 3.2 0.0 0.00 0.00 0.00 92 1021.0
20260508050306 -1 0 3.2 0.0 0.00 0.00 0.00 10 1021.0
20260508043306 -2 0 4.8 0.0 0.00 0.00 0.00 10 1021.0
20260508040307 -3 310 4.8 0.0 0.00 0.00 0.00 10 1021.0
20260508030306 -2 0 4.8 0.0 0.00 0.00 0.00 10 1021.0
20260508023307 -2 360 3.2 0.0 0.00 0.00 0.00 10 1020.0
20260508020307 -1 0 1.6 0.0 0.00 0.00 0.00 10 1020.0
20260508013307 -1 0 1.6 0.0 0.00 0.00 0.00 10 1020.0
20260508010306 -1 0 3.2 0.0 0.00 0.00 0.00 10 1020.0
20260508003306 0 0 1.6 0.0 0.00 0.00 0.00 92 1019.0
20260508000306 0 0 3.2 0.0 0.00 0.00 0.00 10 1019.0
20260507233306 0 210 3.2 0.0 0.00 0.00 0.00 10 1019.0
20260507230306 0 0 0.0 0.0 0.00 0.00 0.00 10 1019.0
20260507223306 0 0 0.0 0.0 0.00 0.00 0.00 10 1019.0
20260507220306 0 10 4.8 0.0 0.00 0.00 0.00 10 1018.0
20260507213306 0 330 8.0 0.0 0.00 0.00 0.00 10 1018.0
20260507210307 0 0 4.8 0.0 0.00 0.00 0.00 86 1018.0
20260507203307 0 0 1.6 0.0 0.00 0.00 0.00 74 1017.0
20260507200305 0 0 3.2 0.0 0.00 0.00 0.00 74 1017.0
20260507193307 1 260 4.8 0.0 0.00 0.00 0.00 69 1017.0
20260507190307 2 310 4.8 0.0 0.00 0.00 0.00 69 1017.0
20260507183307 1 310 8.0 0.0 0.00 0.00 0.00 69 1017.0
20260507180310 2 290 12.9 0.0 0.00 0.00 0.00 64 1016.0
20260507173308 2 320 9.7 0.0 0.00 0.00 0.00 64 1016.0
20260507170307 3 300 11.3 0.0 0.00 0.00 0.00 64 1016.0
20260507163307 2 260 11.3 0.0 0.00 0.00 0.00 64 1016.0
20260507160308 3 290 12.9 0.0 0.00 0.00 0.00 64 1016.0
20260507153308 3 280 11.3 0.0 0.00 0.00 0.00 55 1015.0
20260507150308 5 320 12.9 0.0 0.00 0.00 0.00 52 1015.0
20260507143307 3 320 12.9 0.0 0.00 0.00 0.00 51 1015.0
20260507140308 3 320 12.9 0.0 0.00 0.00 0.00 55 1015.0
20260507133307 3 290 11.3 0.0 0.00 0.00 0.00 55 1015.0
20260507130307 3 320 12.9 0.0 0.00 0.00 0.00 60 1015.0
20260507123308 3 320 11.3 0.0 0.00 0.00 0.00 60 1014.0
20260507120307 3 320 11.3 0.0 0.00 0.00 0.00 51 1014.0
20260507113308 5 320 12.9 0.0 0.00 0.00 0.00 52 1014.0
20260507110307 3 270 9.7 0.0 0.00 0.00 0.00 48 1014.0
20260507103307 3 240 9.7 0.0 0.00 0.00 0.00 51 1014.0